Theta_e
319 319 318 319 321 321 319 319 320 321 321 321 321 321 321 322 323 324 324 324 323 324 325 325 325 325 326 326 326 326 326 327 326 326 326 328 328 324 317 315 313 311 311 311 311 312 313 315 315 315 314 314 317 320 318 319 319 320 322 321 320 320 319 319 319 318 318 319 318 318 319 319 318 317 316 316 316 317 317 318 319 317 319 320 317 323 331 329
319 319 319 319 321 321 319 318 320 320 320 321 320 321 321 321 322 323 324 324 324 324 324 325 325 326 326 326 327 327 326 326 326 325 326 326 323 319 315 314 313 311 311 311 311 312 314 315 315 314 315 317 318 319 320 319 320 321 322 322 321 321 319 319 319 318 318 318 318 318 319 319 318 317 316 316 317 317 317 318 318 319 320 319 316 320 325 326
319 319 319 320 320 321 319 317 318 320 320 321 320 320 321 321 321 322 324 325 324 324 324 324 325 326 326 326 327 326 326 326 326 324 324 323 319 317 315 312 312 311 310 311 312 312 314 315 314 314 316 318 318 318 320 319 319 321 322 323 322 320 319 318 318 317 317 318 318 318 318 319 318 317 316 317 318 317 317 319 317 319 322 320 318 319 321 325
319 319 319 319 320 320 319 317 318 319 320 320 320 320 320 321 321 321 323 325 325 325 325 325 325 326 326 326 326 326 326 324 322 323 323 320 318 318 315 312 311 311 309 311 313 313 315 315 314 314 316 319 318 319 320 319 319 320 320 321 320 320 319 317 317 316 315 317 318 318 317 317 317 316 317 317 317 317 317 318 318 317 321 322 319 317 319 323
319 319 319 319 319 319 318 317 317 318 319 319 320 319 320 320 321 322 323 326 327 327 327 326 325 326 326 326 327 326 324 322 321 321 322 319 317 317 314 312 311 309 309 311 312 313 315 315 314 314 317 318 318 319 319 318 319 319 318 319 319 319 319 316 315 314 314 316 318 318 317 317 316 316 317 317 317 316 317 317 318 317 320 323 319 317 319 321
319 318 319 318 319 319 318 316 316 317 317 319 319 319 319 319 320 323 325 327 329 329 328 327 327 327 327 327 327 325 323 324 321 318 321 318 316 315 312 311 310 308 309 311 312 313 314 315 314 315 317 318 318 319 319 318 318 319 318 317 317 318 318 315 314 314 314 316 318 317 317 316 316 317 317 317 317 316 315 315 316 316 320 323 319 316 318 319
319 318 318 318 318 318 317 316 315 316 317 319 319 319 319 318 321 324 325 327 328 328 328 328 327 327 326 324 322 319 319 322 318 315 316 314 312 313 311 310 309 309 310 313 313 313 315 315 314 316 317 317 318 318 318 318 318 319 318 317 316 316 316 314 313 313 313 316 316 316 316 316 317 317 315 316 317 316 315 314 314 314 317 319 317 315 316 317
318 318 318 318 318 317 316 314 314 316 318 319 319 318 318 318 321 324 324 325 326 325 325 327 326 325 325 322 317 313 315 320 318 315 312 311 311 311 311 310 309 309 311 313 313 314 315 314 314 315 317 317 318 318 318 317 318 319 318 317 316 315 314 312 312 313 313 314 314 314 316 316 316 315 315 316 316 316 315 314 314 314 314 315 316 315 315 316
317 317 317 317 317 316 315 314 314 317 318 319 318 317 317 318 320 322 322 323 323 321 322 324 324 321 318 317 314 312 316 319 321 317 312 311 310 310 310 309 309 310 312 314 314 314 315 314 314 316 317 318 318 318 317 317 318 319 318 317 316 315 313 313 313 313 313 314 313 315 317 315 314 314 315 316 316 315 315 314 314 314 314 315 316 316 315 316
317 317 317 317 315 314 314 314 316 318 319 318 318 316 316 317 319 320 321 320 318 316 316 316 316 314 309 309 311 312 315 318 321 319 313 311 310 309 309 309 310 311 313 314 314 314 314 313 314 315 316 317 318 317 317 318 317 318 318 317 316 315 314 314 315 314 314 314 313 316 316 315 314 314 316 316 315 315 314 314 314 314 315 316 316 315 315 316
315 316 316 315 314 314 315 315 316 318 317 317 317 316 316 317 318 319 320 317 314 312 311 309 308 308 306 309 312 311 313 315 318 319 313 311 311 309 309 310 311 312 314 315 314 314 314 313 314 315 314 316 317 317 317 316 317 317 316 316 315 315 315 314 315 314 315 315 313 316 316 315 314 314 316 315 314 314 314 314 314 313 316 320 319 315 314 315
315 315 315 314 313 315 315 314 316 316 315 316 316 316 316 316 316 318 318 314 311 309 308 307 306 307 307 310 312 311 313 314 315 317 312 310 311 310 310 311 312 314 315 314 314 314 313 313 314 314 314 316 316 315 315 315 316 317 316 316 315 316 316 315 316 315 316 315 313 315 315 315 315 315 316 315 314 314 314 315 315 313 315 320 321 316 313 314
315 315 314 314 314 316 315 315 316 315 315 315 316 316 315 315 315 316 316 312 309 307 306 307 306 307 309 310 310 310 313 314 312 313 310 309 311 311 311 313 314 315 315 314 313 313 312 312 313 314 314 316 316 315 315 314 316 317 317 317 315 316 315 315 316 315 315 315 313 314 313 315 317 316 315 314 314 314 314 315 316 316 315 316 316 315 314 314
315 315 314 314 314 315 315 314 315 315 315 316 316 315 315 314 313 313 313 310 308 307 306 306 306 308 309 310 310 309 311 313 312 311 310 310 312 312 313 314 315 315 314 313 312 312 312 312 313 313 313 315 315 314 314 314 315 316 316 317 316 316 315 315 315 315 315 314 313 314 313 315 316 315 314 313 313 314 315 316 315 316 316 315 314 314 314 314
315 314 314 314 314 314 314 313 314 315 315 315 315 314 314 313 312 311 310 308 307 307 306 306 307 309 310 309 310 309 310 312 312 311 310 311 313 313 313 315 315 314 312 311 311 312 312 312 312 313 313 314 314 314 315 314 315 316 315 315 317 316 315 315 315 315 315 314 314 314 313 315 316 314 313 311 313 313 314 316 315 315 316 316 315 314 314 314
314 314 314 315 314 313 313 313 314 315 315 314 314 314 313 312 310 309 308 307 307 307 306 306 307 309 310 309 310 310 309 311 312 312 313 313 314 314 314 314 312 311 311 311 311 312 313 313 313 314 314 314 315 315 315 314 314 316 315 314 316 316 316 315 314 315 316 315 314 314 314 316 317 315 313 312 313 314 314 315 316 315 315 315 316 316 315 315
315 314 315 315 314 313 313 312 313 315 314 313 313 313 312 310 308 307 307 306 306 306 306 307 308 309 309 310 312 311 309 310 311 313 314 314 314 314 313 312 311 311 311 311 311 312 312 312 313 314 314 314 315 316 315 314 314 315 315 315 316 316 315 315 314 315 315 315 315 314 314 315 316 316 314 313 314 315 315 316 316 316 316 316 316 316 316 316
314 314 314 314 313 313 312 312 313 314 314 313 313 312 310 308 307 307 306 305 306 307 307 308 309 309 309 309 312 313 310 309 310 313 315 315 314 314 312 312 312 312 312 312 312 313 312 313 313 313 314 314 314 315 314 314 315 314 314 315 316 315 314 315 315 314 314 314 315 315 315 315 316 316 316 315 314 315 315 316 316 316 316 316 317 316 316 316
314 313 313 313 312 312 312 312 313 313 313 312 312 311 309 308 308 307 305 305 308 309 309 310 310 310 310 309 311 313 311 309 309 313 315 314 313 312 311 311 312 312 313 313 313 313 313 314 314 314 314 313 314 315 315 316 317 316 315 315 316 314 314 315 314 313 314 314 315 315 316 316 316 316 316 316 315 315 316 316 316 317 317 317 317 317 317 316
313 313 313 312 311 311 311 311 312 312 312 312 312 312 312 311 310 310 308 307 310 311 310 311 310 310 311 310 310 312 312 311 310 312 314 314 312 312 312 313 313 313 313 313 313 314 315 314 314 314 314 314 315 315 315 316 317 317 316 315 315 315 313 314 314 312 313 315 315 315 316 316 316 316 317 317 316 316 316 317 317 317 317 317 318 317 317 316
313 313 312 311 311 311 311 311 311 311 311 312 312 313 313 313 311 311 311 310 310 310 310 310 309 310 311 310 310 312 312 312 312 313 314 313 312 313 313 314 313 312 313 314 314 314 314 314 314 315 315 315 314 315 314 314 316 316 316 315 315 315 314 314 314 312 312 314 315 316 315 316 316 316 317 317 317 317 317 317 317 318 318 318 318 318 316 316
313 313 312 311 311 311 311 311 311 311 311 312 313 313 312 311 311 310 310 310 309 309 311 310 309 310 310 311 312 312 312 313 313 313 313 313 313 313 314 313 312 312 314 314 315 314 313 315 315 314 315 314 314 314 313 314 315 316 316 314 314 315 315 313 313 312 312 313 315 316 315 316 316 316 317 318 318 318 317 317 317 317 317 317 317 316 316 316
313 312 312 311 311 310 310 311 311 310 311 312 313 313 311 311 310 309 309 310 309 309 310 310 310 310 310 312 313 312 313 314 314 313 313 313 313 314 314 313 312 312 314 314 314 313 313 314 314 314 314 314 313 313 314 314 314 315 315 313 314 315 314 313 313 313 312 312 313 315 315 315 316 316 317 316 315 315 314 313 313 312 313 314 314 314 314 315
313 312 311 310 310 310 311 311 311 310 312 313 312 311 311 310 309 309 310 310 310 309 311 311 311 311 311 313 313 313 314 314 314 314 313 313 314 313 314 313 312 313 313 313 313 313 314 312 310 312 314 313 313 313 314 313 313 317 317 315 315 316 314 314 315 313 313 312 312 314 313 314 315 316 316 314 312 313 312 312 313 313 312 312 312 313 313 313
312 312 311 310 310 310 310 310 311 311 312 312 311 309 310 309 309 310 311 311 310 310 310 311 311 311 312 313 312 313 313 313 314 313 313 313 314 313 313 313 313 313 313 313 312 313 314 309 308 312 313 313 314 313 314 314 313 315 317 317 315 315 314 315 315 314 314 313 313 314 311 311 315 316 316 314 312 313 314 315 316 315 315 314 315 315 313 313
312 311 311 310 310 310 310 311 311 311 312 311 309 309 309 308 309 311 311 311 310 310 310 310 312 312 312 313 313 312 313 313 313 313 313 313 313 313 313 313 313 313 313 313 313 314 311 307 309 313 313 315 314 313 315 315 313 313 316 316 314 315 316 315 316 315 314 313 313 313 311 311 314 315 315 314 313 314 315 316 317 316 316 316 317 316 314 313
311 311 310 309 309 310 310 311 311 312 312 310 308 309 309 308 310 311 311 311 311 311 309 310 311 312 313 313 313 312 313 314 313 313 313 313 313 313 313 312 312 312 312 313 313 313 310 308 311 313 314 315 314 314 316 315 313 315 316 315 313 315 316 316 317 316 315 315 313 314 315 313 312 314 315 313 313 315 315 316 316 316 316 316 316 315 314 314
311 310 310 309 309 310 311 312 311 311 311 309 309 309 308 309 310 310 311 311 311 311 309 309 309 311 312 312 312 312 313 314 314 313 312 313 313 313 313 313 312 311 311 312 313 312 311 311 313 314 314 315 314 314 316 316 314 315 315 316 316 317 317 317 317 316 316 315 313 315 316 312 312 314 314 313 313 314 315 316 316 316 316 316 316 315 315 315
310 309 309 309 309 310 312 312 311 311 309 308 309 309 308 309 309 309 310 311 311 309 309 309 309 311 312 311 311 312 313 314 314 313 312 313 313 312 313 313 312 311 311 313 314 313 312 311 312 314 315 315 313 311 314 317 315 313 313 316 317 318 318 318 317 316 316 313 313 316 315 312 311 313 314 312 313 315 316 316 316 316 316 315 316 315 315 316
309 309 309 309 310 311 312 311 310 309 308 308 309 308 308 308 309 309 309 311 311 309 308 309 310 312 312 311 311 312 313 313 313 312 312 313 313 312 313 313 313 313 314 315 315 312 310 309 311 314 313 312 311 310 312 316 315 313 315 316 316 316 316 316 315 315 314 313 314 314 313 312 311 312 315 314 312 315 316 315 315 315 315 315 315 315 315 315
309 309 309 309 310 311 311 310 309 308 308 308 309 308 308 308 308 309 309 311 311 309 308 309 311 312 311 311 312 312 313 312 312 312 312 312 312 312 313 313 314 314 314 315 314 313 311 310 312 312 310 311 312 312 312 313 314 316 317 316 315 315 315 314 314 314 313 313 312 310 311 313 311 311 315 313 312 314 316 315 315 315 315 315 315 314 314 315
310 309 309 310 310 310 310 310 309 308 309 309 309 308 308 309 308 309 310 310 310 309 309 311 312 311 311 312 312 313 313 313 313 313 313 313 312 312 313 313 314 314 313 313 315 315 314 313 313 312 309 311 314 313 312 313 314 316 316 314 314 314 315 315 314 314 313 312 309 309 311 313 311 312 314 313 312 314 316 316 316 316 316 315 314 314 314 314
311 309 309 310 310 308 309 310 308 308 309 309 309 309 309 309 308 310 310 309 311 311 310 312 312 311 312 313 313 313 314 313 313 313 313 313 313 313 314 314 314 315 314 314 315 316 316 314 314 314 311 311 313 313 313 313 314 315 316 313 313 314 314 315 314 313 313 311 308 309 312 312 311 313 314 313 313 314 315 315 315 316 315 315 314 314 313 314
310 310 310 311 309 307 309 308 308 309 309 309 310 310 310 310 309 310 310 310 311 311 311 312 312 312 312 313 313 313 313 313 312 313 314 314 314 314 314 313 314 316 315 315 315 315 315 314 313 314 313 312 313 314 313 314 314 315 317 315 313 314 314 314 314 314 314 312 309 309 311 311 311 312 312 312 312 312 311 312 313 314 314 313 313 313 313 313
310 310 311 311 309 308 309 308 308 309 309 310 311 310 310 311 310 310 311 311 310 311 312 312 312 312 313 314 313 312 313 313 312 313 314 314 314 315 314 313 313 315 315 315 315 315 315 314 312 312 311 311 313 313 313 315 316 315 316 316 314 314 314 312 311 312 312 312 311 310 311 313 313 312 310 311 311 310 310 311 312 312 312 312 313 313 313 313
309 311 312 311 310 309 309 308 309 309 310 310 310 309 310 311 311 311 312 311 310 311 312 313 313 313 313 313 313 312 312 314 313 313 314 315 315 315 315 314 313 314 315 315 315 314 314 314 312 311 311 310 311 311 311 312 315 314 314 314 312 313 313 311 310 309 309 311 313 312 312 312 313 312 311 311 311 310 310 312 312 312 312 313 314 314 312 312
310 311 312 311 310 310 309 309 310 310 311 311 310 310 311 312 312 312 312 311 311 312 312 313 313 313 313 313 313 313 313 314 313 314 315 314 315 315 314 314 314 314 314 314 315 315 314 313 312 312 313 310 308 310 310 310 312 313 314 314 311 311 312 311 311 311 310 311 312 312 312 311 311 312 312 311 311 310 310 312 313 313 313 314 314 314 312 312
311 311 311 311 311 311 309 309 310 310 312 312 311 311 313 313 312 313 312 311 312 312 313 313 314 314 313 313 313 313 313 314 313 314 315 314 314 315 314 314 314 314 313 312 314 316 316 315 312 311 313 311 309 311 312 310 311 312 313 313 313 313 312 311 312 312 312 312 311 310 310 310 311 312 312 312 312 311 310 312 313 313 313 314 315 313 312 312
311 312 312 312 312 311 309 309 311 311 311 312 311 312 314 314 312 313 313 312 313 313 313 314 313 313 314 313 313 313 313 313 313 314 315 314 313 314 314 314 314 313 312 311 313 316 316 316 315 311 311 312 311 312 314 313 311 310 311 312 313 314 313 312 312 312 312 312 312 311 310 310 312 314 313 312 313 312 311 312 313 313 314 314 314 313 312 312
312 312 312 312 312 311 310 310 311 312 311 311 312 312 314 314 312 312 313 314 314 312 313 315 313 312 314 315 314 313 313 314 313 314 315 314 312 312 313 314 313 312 312 311 313 315 313 314 316 312 311 312 313 313 314 315 313 311 311 312 312 313 312 312 313 311 311 311 311 312 311 311 312 313 314 314 313 313 312 312 313 314 314 315 314 313 312 312
312 312 311 312 313 311 311 312 312 312 311 311 312 313 314 314 312 312 312 313 313 311 312 315 314 313 315 315 313 313 314 314 314 314 314 313 312 312 313 313 313 311 311 311 313 314 312 313 316 313 312 313 313 311 310 312 313 313 313 313 313 313 312 313 313 312 310 310 311 311 311 312 312 311 312 313 313 314 313 312 314 314 314 314 314 312 312 312
312 312 311 312 313 311 312 313 312 312 312 312 312 313 314 313 311 312 312 312 313 312 311 314 315 315 315 315 314 314 313 314 314 314 314 313 313 313 312 312 312 311 312 313 315 315 314 315 315 314 313 313 312 309 306 307 310 312 312 313 314 314 313 313 314 312 310 309 309 310 311 312 310 307 309 310 310 312 314 314 314 315 314 314 313 312 312 312
311 309 310 313 313 312 313 313 312 313 313 312 312 313 314 314 312 312 312 313 313 312 312 313 313 313 314 315 315 314 313 314 315 314 314 314 313 311 310 311 312 311 312 314 315 314 314 315 315 313 313 312 310 309 307 307 310 312 313 312 313 315 315 313 313 313 312 310 310 310 312 313 311 307 308 308 306 308 312 314 314 314 314 314 313 312 312 312
308 308 309 313 313 312 313 313 312 313 312 311 312 312 313 313 313 312 312 313 313 313 313 313 312 312 313 313 313 313 313 314 315 315 315 315 313 308 308 310 311 312 313 313 314 313 313 315 316 314 314 314 313 312 311 311 311 313 314 313 313 315 315 312 311 311 312 313 313 311 312 313 311 307 307 306 306 307 310 314 315 314 314 313 312 312 312 311
308 309 309 311 313 313 313 313 313 313 312 312 312 313 312 312 312 312 313 314 313 314 314 313 312 313 313 313 313 314 314 314 316 316 315 315 313 308 307 309 311 312 312 312 313 313 314 316 316 315 315 315 315 315 315 314 313 313 314 315 313 314 314 313 312 312 313 315 315 312 312 312 310 308 307 307 306 307 309 313 314 314 314 313 312 312 312 312
307 309 309 309 311 313 312 312 313 313 312 311 311 313 313 312 311 312 314 313 312 314 314 312 313 313 313 313 314 314 315 315 315 315 314 314 313 309 307 308 310 311 311 311 312 313 315 317 316 314 315 315 315 317 318 317 315 315 316 316 314 315 315 314 314 313 313 315 315 314 313 313 312 311 309 308 307 307 309 312 314 314 313 312 312 311 312 312
305 307 308 309 311 312 312 312 313 313 312 311 311 313 314 313 311 311 313 313 312 313 313 312 313 313 312 313 314 314 314 314 314 315 315 314 312 309 308 307 308 310 309 310 312 313 314 316 316 316 316 315 315 316 318 318 317 317 317 317 316 315 315 315 315 315 315 314 314 314 315 315 314 313 311 310 309 308 310 312 313 313 313 312 311 311 311 311
303 304 304 307 310 311 311 311 312 312 312 311 311 312 313 314 312 311 312 313 313 314 313 312 313 314 313 314 314 314 315 314 313 314 316 315 312 310 309 308 309 308 309 311 312 314 314 313 315 316 316 316 315 315 316 317 316 316 317 317 317 315 315 316 315 315 316 315 314 315 317 316 314 313 313 312 310 309 310 312 312 312 312 312 311 310 310 311
302 302 302 305 308 310 311 312 312 312 312 311 311 312 313 314 313 313 313 313 313 313 314 314 313 313 314 313 314 315 315 313 314 315 314 314 313 312 310 310 309 308 310 312 312 313 313 313 315 316 315 317 318 315 316 317 317 318 318 317 316 315 314 315 314 314 315 316 315 316 319 318 315 314 314 313 311 310 311 311 311 312 312 311 311 310 310 311
301 302 302 304 306 307 310 312 312 312 311 311 311 312 312 313 313 314 314 314 314 314 314 314 315 314 314 314 314 315 314 313 315 315 313 313 314 313 311 311 310 309 310 312 311 311 312 314 318 316 314 317 318 315 315 316 316 318 319 318 316 315 315 314 315 315 315 316 316 316 319 319 316 315 314 313 311 311 311 311 311 312 312 311 311 310 310 311
301 301 303 305 305 305 308 311 311 311 311 311 310 312 313 313 313 314 314 313 315 314 313 314 315 313 313 314 315 315 314 315 316 315 313 313 314 313 313 313 312 311 311 311 312 313 311 312 315 313 312 316 317 313 313 313 312 315 318 318 316 315 315 314 315 315 315 315 316 316 318 317 315 315 314 312 311 311 311 312 311 312 312 311 310 310 310 311
301 302 302 304 304 303 305 310 312 311 311 311 310 312 313 313 313 314 313 313 314 315 314 314 314 313 312 313 314 315 314 314 314 314 312 313 313 312 313 313 312 311 312 311 312 314 312 312 313 312 312 316 314 311 311 312 311 312 314 316 316 315 315 314 314 315 315 315 316 316 316 315 314 314 314 312 311 311 311 311 311 312 312 311 310 310 311 311
Wind_Speed
35 35 35 36 35 33 33 37 36 37 37 35 36 35 35 37 36 35 38 41 40 39 39 40 40 39 39 37 34 32 29 23 21 23 29 31 26 21 16 12 9 8 10 11 11 13 14 14 12 13 11 11 9 8 11 10 9 8 4 5 5 5 4 4 5 2 3 8 10 11 13 8 7 8 6 5 5 3 5 6 5 4 5 4 4 10 14 14
36 36 37 38 36 33 33 37 37 36 36 34 35 35 33 37 38 36 37 39 40 39 38 39 39 38 38 36 33 31 28 23 21 24 29 26 19 19 16 14 11 9 11 12 14 15 14 14 13 13 12 10 10 10 10 9 11 7 3 5 4 3 4 4 5 5 3 7 11 11 11 7 6 10 8 6 7 7 6 7 7 6 7 7 4 10 15 15
37 36 38 39 36 33 33 37 38 36 36 34 34 35 33 35 38 38 36 37 38 38 37 38 38 38 37 36 32 27 25 22 22 27 27 22 16 17 16 14 14 12 12 13 15 17 14 13 12 13 14 11 10 12 9 10 10 5 4 5 2 5 6 6 6 6 6 5 11 11 10 6 4 9 8 6 6 7 7 7 9 9 11 11 7 10 14 16
38 37 39 39 36 34 33 36 38 36 36 34 33 35 34 33 36 38 37 35 37 37 37 37 37 37 36 36 32 27 24 16 20 28 23 19 16 16 17 15 15 14 13 14 15 17 13 11 13 13 13 11 12 13 11 12 9 4 4 2 4 5 4 5 6 5 5 4 8 10 9 7 5 7 7 6 5 6 7 7 8 7 12 16 12 10 13 16
38 38 39 39 37 34 33 35 39 37 35 34 33 35 35 34 35 37 37 35 36 36 35 35 36 36 35 35 32 29 22 7 14 27 21 18 17 16 18 17 16 15 15 16 17 19 15 12 14 15 13 9 11 11 11 15 9 5 2 4 5 2 2 5 4 3 4 3 7 10 8 7 6 6 7 8 5 2 3 5 6 3 9 15 14 11 13 17
39 40 40 39 37 35 33 35 38 38 37 34 34 34 34 35 35 36 37 36 36 37 36 36 36 35 34 33 31 31 23 5 6 17 19 18 18 18 19 18 17 16 17 17 17 20 16 13 15 16 13 9 12 11 9 13 10 5 3 3 4 3 3 4 3 4 5 4 7 8 6 6 7 6 6 9 6 3 5 4 5 6 9 11 11 11 13 16
41 40 40 38 37 35 33 34 36 38 38 34 33 34 33 34 35 36 37 35 36 37 36 36 36 34 33 32 28 27 24 16 8 9 10 13 16 20 19 19 19 18 19 18 19 19 15 15 17 17 13 8 13 12 9 11 10 5 5 6 5 4 3 4 3 6 6 4 5 5 5 5 7 5 4 9 6 1 2 4 5 7 10 11 9 10 11 13
42 40 38 37 35 34 32 33 36 39 37 33 33 34 33 34 35 37 36 34 36 36 35 35 34 34 34 32 27 22 22 27 20 11 5 8 13 20 20 20 20 20 20 20 21 19 15 16 18 18 12 9 13 11 10 10 8 6 6 9 5 5 4 4 4 6 6 3 4 5 5 4 3 2 2 7 6 6 9 6 5 5 7 11 11 10 10 12
41 40 38 36 34 33 32 34 39 38 35 33 33 33 32 34 35 36 35 33 34 34 34 34 33 33 32 32 28 17 19 27 26 22 10 7 11 19 21 22 21 21 21 22 22 19 16 16 19 18 10 9 13 11 12 11 6 5 9 10 8 6 6 5 5 6 5 4 5 6 5 3 2 4 5 7 8 9 10 9 10 7 5 7 9 11 12 12
41 40 38 36 33 33 34 37 39 35 33 33 32 32 33 34 34 35 35 33 33 33 32 33 34 32 30 31 23 10 18 25 26 29 16 7 10 19 22 23 22 22 22 22 21 18 17 15 17 16 9 7 12 10 12 9 4 11 13 11 10 8 6 4 5 6 5 6 5 4 4 3 2 3 3 7 11 11 9 10 11 12 10 9 9 11 12 13
41 40 38 36 34 34 37 40 38 32 32 33 32 33 33 34 34 35 35 33 31 31 32 33 34 33 32 30 18 9 18 23 24 28 20 9 11 19 23 23 22 23 23 23 22 20 19 14 14 13 7 6 11 7 6 4 6 16 16 12 9 8 7 4 6 6 4 5 4 2 3 4 4 3 3 7 8 7 7 8 10 12 11 9 10 12 12 14
40 39 38 37 36 37 39 41 36 30 32 34 33 33 33 33 34 35 35 32 29 31 33 34 34 34 32 24 17 14 15 18 21 24 22 14 12 19 22 22 23 24 21 20 22 22 21 16 13 12 7 6 10 6 5 6 8 15 14 9 8 7 6 4 5 5 3 3 5 2 3 6 8 7 5 7 7 6 6 4 6 11 12 11 11 13 14 13
40 39 38 38 38 36 38 39 34 31 34 35 33 33 32 32 33 34 33 31 30 32 33 33 33 33 28 18 18 18 13 13 17 20 22 16 13 19 21 21 23 24 20 16 18 21 22 20 14 11 11 7 6 6 7 8 8 11 10 6 7 6 6 6 5 4 3 4 7 4 3 5 10 9 7 8 8 7 6 5 5 7 11 13 13 14 14 14
40 39 39 40 38 36 36 38 34 32 34 33 33 32 30 30 32 31 31 31 32 32 32 32 32 31 22 14 16 20 15 12 14 17 20 16 14 19 21 21 22 22 20 16 16 18 19 19 13 9 11 8 7 10 8 7 5 8 6 4 6 6 6 7 5 5 5 5 6 4 4 2 7 9 6 7 8 7 6 6 7 6 8 11 13 14 15 14
40 40 41 40 39 37 36 37 36 33 33 32 32 29 27 29 30 30 30 31 32 32 32 32 32 26 16 10 11 19 20 14 13 15 17 17 16 19 21 21 20 19 19 17 17 17 15 15 13 10 7 6 12 11 7 5 4 6 5 5 7 5 5 7 5 4 3 5 7 5 5 4 6 9 4 6 7 7 7 6 7 7 7 8 11 13 15 15
40 41 41 40 39 36 35 38 37 34 32 30 29 27 27 29 30 30 30 31 31 31 30 31 32 22 10 9 9 17 23 18 14 15 17 18 17 20 21 19 17 17 17 16 16 15 14 12 10 8 7 9 11 8 6 6 5 5 5 5 7 8 6 6 4 2 1 3 8 7 5 4 5 7 5 6 6 6 6 7 7 8 8 8 9 11 13 15
40 41 40 39 38 35 35 38 38 35 30 29 29 27 28 29 30 29 30 31 31 31 29 28 29 17 5 9 10 15 25 23 17 15 16 18 19 19 20 17 15 15 14 14 14 13 13 11 7 7 8 8 9 8 7 8 7 6 5 3 4 7 6 5 4 4 4 3 7 9 7 8 2 7 7 8 7 5 4 6 7 8 8 8 9 10 11 12
40 40 39 38 37 35 36 37 38 35 31 31 29 27 28 28 29 29 30 30 28 26 22 23 24 11 6 12 12 15 26 27 20 15 16 20 19 18 18 17 15 14 13 11 11 13 13 11 7 6 7 9 10 10 9 9 9 9 8 4 3 4 4 4 4 5 7 6 7 9 9 12 8 5 8 10 9 5 5 6 7 8 8 8 9 10 10 11
40 39 38 37 36 36 37 39 39 35 33 32 27 28 27 26 25 23 28 32 27 18 10 21 26 6 3 17 18 16 23 26 21 16 18 21 20 18 18 17 16 17 14 10 10 14 13 9 8 8 8 10 12 12 10 9 11 13 12 9 6 6 4 2 5 3 3 5 8 10 9 11 11 8 8 10 11 7 8 8 8 9 9 10 11 11 11 13
40 39 38 37 37 38 39 41 39 36 37 32 32 33 26 24 18 11 27 32 24 15 4 21 30 3 4 19 24 17 17 21 21 19 20 22 21 18 16 15 16 15 11 10 10 11 12 8 8 9 10 13 13 9 4 4 9 13 12 9 7 8 5 4 6 3 1 3 7 10 10 10 10 8 9 9 9 8 10 11 11 11 12 12 11 12 14 16
40 39 38 38 38 39 40 41 38 38 38 35 41 33 23 29 16 13 32 23 16 15 4 22 34 7 2 20 25 21 19 15 16 21 21 22 23 17 14 15 13 10 11 13 10 8 9 8 10 12 10 13 11 4 2 2 7 10 9 8 8 7 4 5 4 3 1 2 4 5 8 11 11 9 10 10 9 9 11 12 12 11 11 11 10 13 17 17
40 38 38 38 38 39 41 40 37 38 37 37 40 21 18 29 12 20 36 14 7 11 5 26 33 10 6 20 25 24 21 12 11 21 22 24 24 14 12 14 11 9 10 12 9 7 8 9 11 9 5 8 7 4 3 4 6 7 6 7 6 5 5 5 3 4 2 2 1 1 5 10 10 10 10 9 9 9 8 9 10 10 10 9 9 12 17 19
39 39 38 38 38 40 41 39 36 39 38 38 35 16 16 23 11 27 32 12 8 8 7 23 21 9 12 20 25 24 18 11 13 21 24 26 20 11 12 13 12 11 10 11 9 8 9 6 5 6 7 9 7 6 6 5 5 5 6 7 5 6 5 2 4 5 2 1 2 3 5 8 8 10 8 4 4 5 6 8 11 12 13 13 12 14 18 20
39 40 39 39 39 40 41 39 37 38 37 34 29 17 18 20 22 34 25 10 7 5 9 17 12 11 17 20 22 18 13 12 14 22 28 26 16 10 13 13 12 11 10 14 13 11 6 1 2 3 8 10 9 9 8 6 5 3 4 5 4 7 4 2 6 6 2 2 2 4 6 7 7 10 7 4 4 4 4 6 7 7 10 12 13 15 18 19
39 40 40 41 40 42 40 38 38 36 34 32 26 20 23 28 32 32 17 7 6 4 7 13 10 13 18 20 17 12 12 12 12 24 30 26 17 11 10 8 8 9 12 15 14 10 4 3 1 5 9 11 10 9 10 8 6 4 4 2 3 7 7 7 9 7 2 4 3 1 5 4 4 9 7 5 5 5 4 4 4 3 4 5 6 9 13 15
40 39 41 42 40 42 40 36 37 34 30 32 28 26 31 36 34 26 14 5 6 4 5 10 11 12 16 17 15 14 12 7 9 25 30 24 18 14 9 5 2 5 11 12 7 4 3 2 1 5 8 9 10 10 10 9 6 5 3 2 4 6 8 9 9 6 2 2 2 1 5 3 2 6 6 5 5 5 5 5 4 3 2 2 3 6 9 10
41 41 41 42 42 45 40 33 36 33 30 31 30 32 37 37 33 25 12 3 6 7 7 8 8 12 15 16 19 14 7 9 12 19 25 22 17 12 9 7 2 2 4 5 4 1 4 4 2 5 8 7 8 7 7 9 7 2 1 1 5 7 9 10 8 5 1 2 2 2 2 4 4 3 5 6 5 5 6 5 4 3 2 2 1 3 7 9
42 42 41 43 44 42 33 30 35 36 34 33 33 37 38 35 31 20 7 3 6 7 7 7 6 11 15 17 18 7 7 17 12 10 20 21 15 9 7 8 7 5 3 2 6 1 3 6 6 8 8 7 6 1 2 7 5 1 1 0 4 6 8 9 6 3 1 0 4 4 3 3 6 2 5 5 6 7 8 7 5 3 2 2 1 1 5 8
41 43 43 44 43 35 24 26 36 37 35 34 35 38 38 32 23 11 3 4 6 5 6 10 9 11 14 15 9 4 10 11 4 10 20 17 12 7 3 8 10 9 5 3 3 1 2 2 2 4 6 5 3 5 4 1 1 4 4 4 6 5 6 5 3 3 2 3 4 4 3 4 5 4 5 5 6 8 8 6 4 4 3 2 2 3 4 7
41 42 43 44 42 32 21 24 36 37 35 36 37 39 36 25 14 6 5 5 6 6 7 10 11 12 16 14 5 4 8 3 5 16 15 10 11 5 6 11 11 9 5 6 6 2 2 2 2 2 1 2 5 6 6 4 6 9 7 8 8 5 4 2 1 2 3 5 2 3 1 2 4 5 5 4 2 4 7 7 5 5 5 4 4 4 5 8
41 41 43 44 39 30 22 27 38 39 37 38 39 39 30 14 7 6 6 6 7 6 6 9 11 13 18 15 7 6 6 5 10 17 11 8 9 7 9 9 6 6 4 3 5 3 4 4 2 3 2 2 5 7 7 4 6 7 6 8 7 4 3 3 2 2 5 4 1 2 2 2 5 4 2 3 2 1 4 7 8 8 8 6 5 6 8 10
37 39 42 40 34 28 26 33 41 39 38 40 42 37 21 7 6 7 6 9 8 7 7 11 13 15 17 15 9 9 8 6 10 13 10 9 7 8 9 6 7 6 5 6 4 3 4 4 2 3 1 3 4 6 5 2 3 3 6 8 6 5 4 4 4 4 5 2 2 1 1 3 6 7 3 2 3 2 3 6 10 11 11 9 7 9 13 14
31 37 40 34 30 29 28 35 42 39 38 41 38 26 12 6 9 9 8 8 6 8 10 12 14 17 17 13 9 9 8 6 8 10 10 10 8 8 4 3 7 5 4 8 6 4 4 2 3 3 2 5 5 5 5 4 5 7 8 8 6 6 5 6 6 4 3 1 1 0 0 3 5 6 5 3 8 7 7 8 10 11 12 9 9 11 15 16
28 36 36 28 28 30 28 36 42 38 40 41 28 14 9 8 9 10 10 6 5 10 12 12 16 18 15 10 9 9 5 2 5 7 8 9 8 8 5 4 5 2 3 7 5 6 5 3 5 4 3 6 6 2 1 5 8 5 3 3 5 5 4 5 5 4 3 3 2 1 2 3 3 0 3 3 10 11 9 9 9 10 10 11 12 13 14 16
28 33 28 22 29 29 27 38 40 37 43 37 16 7 10 9 7 11 10 6 6 10 13 14 16 15 10 6 7 6 1 1 5 5 7 9 9 9 9 8 6 3 6 7 3 4 5 1 1 1 1 3 4 1 3 3 7 3 1 1 3 2 1 1 0 1 2 2 2 4 3 4 2 3 5 5 9 10 8 9 9 9 10 12 12 11 12 16
30 32 23 20 26 25 29 40 39 39 43 27 9 8 10 6 5 9 8 9 10 13 16 15 12 11 8 4 5 4 1 2 7 6 5 6 6 9 10 9 9 8 7 6 3 2 4 1 3 2 1 1 1 2 3 0 3 2 1 3 2 2 3 3 1 2 1 3 3 4 4 3 2 4 7 9 8 8 8 9 10 10 11 11 10 9 13 18
34 31 24 21 23 24 32 39 38 42 36 15 8 10 5 1 1 4 8 11 13 16 16 12 8 8 10 7 7 9 4 5 6 5 5 5 4 9 11 8 11 12 6 2 1 2 4 3 3 1 2 3 4 2 2 3 2 2 3 4 3 1 2 1 2 2 2 5 2 4 5 4 4 4 6 10 10 9 9 10 12 12 11 11 10 10 15 19
35 30 24 21 21 24 33 37 37 38 22 6 11 11 1 2 0 3 12 14 14 14 11 8 6 5 9 10 9 12 10 8 7 5 6 6 5 10 13 7 8 13 6 2 1 1 2 3 3 2 1 2 2 1 3 1 2 1 1 2 2 1 3 3 3 2 4 5 3 4 5 4 5 4 7 12 13 12 12 12 12 13 13 13 11 12 17 20
36 27 18 18 21 23 31 35 33 28 13 5 11 9 1 3 1 2 10 14 14 12 9 8 5 2 7 10 10 12 11 9 9 7 5 6 4 8 14 8 5 10 8 3 1 2 1 1 2 1 1 1 1 3 5 5 2 1 0 1 0 1 2 3 4 3 3 5 5 4 3 3 6 6 9 14 16 15 15 14 13 15 17 15 13 15 20 22
32 17 11 19 22 23 30 30 23 16 8 6 8 5 2 4 3 1 5 9 9 6 6 8 8 5 5 8 10 10 8 7 10 8 4 7 5 3 10 11 7 7 7 4 1 3 1 1 2 3 1 2 3 3 4 5 5 4 5 5 4 2 0 1 3 2 2 4 5 5 4 3 3 5 9 14 16 16 16 14 14 18 19 16 16 20 24 24
25 8 10 22 23 25 30 23 13 8 6 6 4 3 2 4 6 4 3 4 3 1 2 6 8 8 7 8 10 8 5 5 9 6 3 7 7 3 7 11 10 10 8 4 2 3 1 0 4 4 3 4 2 1 2 1 2 3 5 7 7 5 3 3 5 2 0 3 3 2 4 2 2 0 2 5 8 12 18 17 16 19 20 17 18 24 26 26
17 5 13 25 25 30 28 13 7 8 6 4 3 4 4 5 7 7 4 3 3 3 2 3 4 6 6 7 8 9 6 5 7 7 3 6 8 4 5 9 15 17 10 3 2 2 2 3 4 4 2 2 1 2 1 1 1 2 3 4 5 6 6 6 5 3 3 2 1 1 3 2 2 2 3 2 2 3 15 21 19 20 21 18 21 26 27 27
10 6 16 28 31 32 21 7 7 8 4 3 5 6 5 5 6 7 6 4 2 2 2 2 2 3 3 3 6 10 9 5 6 8 5 5 5 2 5 12 17 17 9 3 3 2 2 3 4 3 2 1 1 1 2 1 1 3 4 4 4 4 4 3 2 1 3 4 3 3 5 3 2 2 2 2 3 2 8 19 22 21 20 20 24 28 27 28
11 11 14 26 36 30 14 7 10 10 6 6 6 5 4 3 4 7 8 6 2 3 4 3 2 2 2 3 6 11 11 6 5 6 4 4 3 2 7 16 18 13 7 5 7 8 5 3 4 5 3 2 2 2 2 2 3 5 5 6 6 3 3 3 0 1 2 6 7 6 6 4 1 2 1 1 3 2 5 14 21 21 20 21 25 27 27 28
13 11 8 19 34 27 9 2 6 9 10 10 9 8 6 3 2 3 5 5 2 1 4 3 2 3 4 4 4 7 9 3 1 4 2 2 2 2 5 16 19 13 6 4 10 13 8 3 5 7 6 6 6 6 6 5 4 4 4 6 8 8 7 5 3 3 4 6 7 7 7 3 2 3 3 3 5 6 7 13 17 18 20 23 26 28 29 30
6 4 4 9 20 19 8 3 2 7 11 11 8 9 9 6 3 1 2 4 1 1 4 3 3 5 6 7 6 7 8 1 2 5 5 4 3 2 2 11 14 9 4 5 13 14 3 1 6 9 8 9 9 7 7 7 7 8 10 11 12 12 11 7 3 5 7 5 5 8 9 6 3 5 6 5 7 9 10 13 15 16 21 26 28 30 32 31
3 1 2 4 7 10 8 6 6 7 11 12 8 8 10 10 7 3 0 1 3 3 3 3 3 5 8 12 8 8 10 3 2 5 6 5 3 3 2 5 7 6 5 8 15 11 2 2 8 10 11 9 4 3 8 10 10 12 14 14 13 12 12 9 7 10 8 4 6 10 10 11 10 8 8 8 8 8 10 15 18 21 26 29 29 30 31 30
3 1 1 2 4 5 6 10 12 10 13 13 8 9 13 12 10 8 3 1 3 4 1 1 4 6 11 14 9 7 9 4 2 4 5 5 4 4 3 2 1 5 4 6 10 5 1 7 9 10 13 8 2 4 7 10 10 11 11 11 12 12 13 12 13 14 10 7 11 12 12 14 14 9 9 10 11 12 16 20 23 25 28 28 29 30 31 31
4 3 2 2 3 2 6 11 12 12 14 13 8 10 14 14 12 9 5 4 5 4 3 4 8 8 11 13 9 8 9 7 5 4 4 5 5 4 4 2 2 4 3 4 4 1 2 7 7 9 12 8 3 4 3 7 8 8 9 11 13 14 15 14 14 16 15 13 14 12 7 10 11 9 8 10 14 14 13 16 18 21 26 29 30 32 34 34
4 3 2 3 5 5 6 11 12 11 12 12 9 9 12 14 13 9 6 5 7 7 5 6 10 9 8 9 8 8 11 11 8 7 8 7 4 3 4 3 3 2 1 3 3 0 2 3 4 5 7 5 4 4 0 2 4 5 5 8 12 13 14 14 13 14 15 15 16 12 7 8 9 8 5 8 13 11 10 14 18 20 26 31 33 35 36 36
4 5 5 5 4 3 3 9 11 10 10 11 9 8 11 15 14 10 5 0 2 7 7 7 10 8 3 5 6 4 8 6 3 9 16 10 7 9 6 4 8 6 2 4 4 2 2 1 2 3 5 4 2 3 4 3 2 1 2 7 12 12 12 13 13 13 13 14 16 14 11 10 7 7 6 8 12 12 12 16 19 20 27 34 36 37 37 37
5 6 5 4 3 2 1 5 9 9 8 9 10 9 10 12 13 11 6 1 3 3 6 10 12 7 3 6 6 2 7 7 7 11 19 9 7 11 6 7 15 12 6 6 4 2 5 4 2 4 6 3 2 2 6 6 1 4 6 11 15 14 14 13 11 13 15 15 13 11 12 9 4 8 7 5 8 11 13 18 22 24 28 34 37 38 38 38
Wind_Direction
205 205 202 201 202 203 205 204 201 199 200 205 206 205 209 210 208 207 208 207 207 206 205 205 205 206 206 206 207 210 214 218 218 219 225 226 222 221 229 232 234 250 241 238 231 213 204 203 205 206 201 199 203 193 195 193 182 190 206 217 221 202 180 155 152 108 120 130 138 158 171 176 155 170 191 183 182 156 151 162 174 172 176 207 189 169 175 182
204 204 201 199 201 203 204 204 202 200 200 203 206 205 207 211 209 207 208 207 206 205 204 206 205 205 206 205 206 208 211 217 223 228 223 213 211 217 226 234 234 245 237 231 223 204 199 205 202 202 195 193 199 189 190 186 184 201 210 214 228 163 102 74 92 65 50 129 141 158 176 187 159 161 178 187 171 167 176 174 181 172 171 203 201 177 180 176
203 202 200 198 201 203 204 204 202 200 200 203 205 205 207 210 210 209 208 206 205 204 204 205 204 204 204 204 203 203 211 220 231 230 213 198 212 222 222 227 230 236 232 229 220 202 200 205 199 200 198 197 192 185 189 187 192 212 218 216 174 97 90 65 72 69 40 96 143 154 171 186 151 155 176 193 166 175 200 175 179 187 176 188 189 178 182 178
201 201 200 198 199 204 204 203 203 201 200 201 203 205 208 208 208 207 205 203 202 202 203 202 202 202 203 205 202 202 209 220 237 230 211 205 227 231 223 221 221 228 227 224 216 202 203 209 201 199 208 208 187 187 190 186 191 188 211 249 86 103 107 79 64 78 58 75 142 144 162 183 160 165 185 194 177 185 209 181 176 197 180 182 189 184 185 185
200 201 200 197 199 203 203 203 204 203 201 202 203 205 207 207 204 202 203 201 199 200 200 198 197 199 199 201 199 200 199 205 245 235 228 229 238 239 226 214 213 222 220 218 211 200 199 206 198 197 217 212 180 190 185 179 185 168 171 25 66 85 87 92 70 106 103 92 137 142 160 169 158 183 200 210 214 133 128 153 164 165 155 175 198 197 187 192
199 201 201 198 199 202 202 203 204 203 203 203 204 205 208 208 200 197 200 199 197 196 196 195 193 193 191 188 190 193 191 188 247 228 234 243 243 233 218 209 211 216 215 214 206 200 200 204 195 195 215 209 184 190 166 170 193 191 151 83 68 34 64 94 92 137 122 120 148 146 151 151 170 195 204 226 246 64 88 134 176 181 157 169 202 208 199 201
198 199 200 197 198 202 202 205 205 202 201 202 205 206 208 206 198 195 197 195 194 192 192 192 187 186 182 178 182 184 194 218 213 183 221 249 234 213 205 205 210 212 210 206 199 198 200 203 198 197 208 204 189 185 155 168 207 219 148 130 97 52 73 93 119 147 128 127 142 147 164 170 198 195 191 233 243 244 194 149 151 174 177 187 203 212 214 214
197 197 198 196 197 200 203 205 202 199 200 201 202 206 206 202 195 192 192 191 190 189 187 184 181 181 178 177 177 176 200 219 214 197 234 270 220 199 196 202 208 207 204 201 197 195 197 203 201 198 205 200 186 177 158 168 210 222 139 129 121 83 90 99 122 140 133 137 140 164 179 165 211 217 234 236 215 223 233 206 175 155 167 190 203 212 216 219
196 196 196 195 195 197 200 200 196 196 199 198 200 206 205 198 192 190 189 187 187 187 182 178 179 180 178 178 174 175 209 212 211 218 241 290 223 196 194 199 203 201 200 200 197 193 197 206 203 202 222 203 179 170 171 178 203 183 133 127 130 112 110 112 115 130 138 141 147 172 176 141 197 238 250 225 204 220 234 230 220 218 216 202 204 214 215 220
194 196 196 194 192 193 195 194 193 195 196 197 201 205 202 194 190 187 186 187 188 184 178 177 178 177 174 173 166 177 212 204 209 221 231 282 230 200 194 196 196 194 196 199 196 195 199 206 206 214 257 220 173 167 182 192 153 130 123 121 124 117 123 130 124 133 132 130 159 190 176 150 160 232 236 192 211 231 229 233 232 230 236 229 219 220 218 220
192 195 195 192 190 189 189 190 193 194 194 198 200 200 197 192 189 186 186 188 186 177 175 177 175 175 173 171 171 190 205 201 208 220 231 256 222 201 196 193 191 191 195 199 197 197 199 206 209 216 258 203 168 158 168 174 128 130 124 114 118 120 123 131 135 145 150 138 172 231 182 158 155 219 210 168 197 212 203 225 236 231 225 219 221 225 225 222
190 193 193 190 188 186 186 189 192 192 192 196 197 197 195 190 187 184 185 185 178 172 174 175 174 173 171 177 196 201 198 196 200 217 231 239 217 203 199 191 188 191 196 204 202 199 201 203 207 218 240 187 161 149 147 145 139 143 140 127 133 146 143 146 141 159 203 160 158 199 229 207 197 203 177 173 190 174 178 211 232 231 218 211 217 224 229 226
189 191 190 188 186 184 185 189 193 191 190 194 194 194 192 187 184 182 183 179 171 171 173 173 174 171 169 188 210 203 198 191 193 212 223 229 220 204 200 191 189 193 193 202 207 204 206 203 205 228 245 231 159 139 138 132 142 157 166 161 152 174 176 155 146 172 200 156 159 192 263 220 191 176 148 175 198 188 208 219 211 222 216 218 221 222 227 228
187 188 187 185 184 184 187 191 194 192 191 193 193 192 187 181 180 179 178 173 169 171 172 172 172 169 174 199 210 204 203 192 194 207 212 217 211 199 197 192 191 196 194 197 205 204 205 203 210 235 249 244 144 131 128 120 159 165 168 185 176 198 173 140 147 179 187 160 171 216 265 241 145 137 140 185 193 187 209 211 199 201 205 219 225 224 225 228
187 187 184 184 184 187 189 189 191 192 192 193 191 186 178 175 174 174 172 169 169 170 171 172 170 169 186 214 211 208 206 200 200 201 202 202 197 195 193 192 194 196 195 198 199 198 198 200 213 225 220 184 145 143 138 135 188 174 170 193 196 206 150 127 145 182 199 164 182 218 245 242 124 121 149 185 184 190 209 210 201 204 202 210 222 226 226 228
187 187 185 184 184 186 187 186 189 190 190 188 184 177 172 170 168 168 167 166 168 170 169 172 171 169 190 209 197 204 206 204 199 195 194 191 190 194 191 189 193 193 193 197 195 193 197 197 210 206 171 163 164 163 153 157 186 190 203 200 189 200 170 141 148 174 225 157 191 220 257 262 117 115 153 161 155 171 203 221 217 216 213 212 217 221 224 227
186 186 185 184 183 185 183 184 188 187 186 180 174 170 167 164 163 163 164 166 169 166 167 172 173 173 210 210 193 199 204 201 196 192 190 186 187 191 189 183 185 189 186 189 189 185 188 187 190 192 176 188 195 181 173 185 189 183 211 218 182 202 193 165 149 160 191 200 211 213 243 263 164 121 148 155 152 156 190 222 221 218 217 217 217 220 222 223
184 184 184 183 184 185 181 182 185 184 181 174 169 165 159 157 158 161 163 163 159 156 166 173 171 178 228 206 195 198 202 199 193 192 187 183 183 183 185 180 173 174 167 165 177 176 177 180 184 194 191 201 202 192 193 195 185 177 189 198 174 208 229 193 143 148 183 207 225 211 224 252 244 177 168 167 170 191 228 233 233 230 227 225 222 225 225 224
182 183 182 182 182 181 180 180 182 182 175 170 164 153 145 146 150 157 162 157 152 153 174 180 175 184 240 192 192 197 200 195 190 190 185 180 178 174 179 178 167 165 162 160 176 178 176 180 196 205 195 198 202 201 206 203 192 185 187 198 188 188 214 137 103 108 195 201 217 223 230 247 247 229 213 192 182 210 246 246 248 243 241 239 230 229 229 232
180 181 179 179 177 176 177 178 179 178 172 165 154 145 141 147 144 157 165 162 168 178 190 180 180 170 46 176 185 185 181 182 185 184 182 179 171 164 167 169 167 171 177 172 169 175 182 186 200 206 198 197 200 198 204 220 203 191 188 200 196 189 186 113 97 88 314 235 216 226 242 252 253 246 243 223 190 206 237 241 242 239 240 240 233 233 236 239
178 178 176 174 173 175 176 176 176 173 168 160 153 150 158 161 154 174 168 164 185 190 175 175 180 187 95 171 179 176 161 159 178 180 178 175 163 156 162 166 171 184 190 179 158 153 184 204 205 206 202 192 189 168 118 177 194 190 188 192 197 201 163 96 96 108 74 268 215 214 252 257 256 254 249 238 216 218 234 235 235 235 235 236 234 239 243 244
177 177 175 172 172 175 175 173 172 169 163 160 160 158 170 168 170 174 161 135 157 168 145 172 180 200 184 169 170 169 158 140 165 176 174 169 164 163 171 175 184 181 176 176 158 149 195 214 199 186 165 153 141 127 160 169 180 189 191 196 203 177 128 101 111 118 116 250 206 147 270 262 259 257 246 232 222 226 234 232 235 237 235 236 239 246 248 247
177 177 174 172 173 173 172 170 168 165 162 166 169 161 165 174 174 162 152 107 131 143 129 167 181 197 173 166 162 160 157 145 158 173 173 169 170 175 174 181 191 175 169 181 177 178 194 205 176 135 129 138 136 157 169 160 176 193 189 197 195 152 154 186 155 139 131 227 314 337 288 271 264 255 241 201 194 224 240 243 245 245 241 240 241 245 249 249
177 175 173 172 172 171 169 166 163 164 167 172 173 153 150 166 157 153 145 99 132 138 142 161 176 184 171 165 164 161 160 149 155 172 173 169 169 172 173 185 191 177 182 192 193 194 178 70 11 139 157 165 162 172 181 178 178 192 201 202 180 156 150 51 129 142 138 177 257 304 280 267 244 236 224 142 143 198 221 238 242 245 245 246 246 247 250 250
176 173 173 171 170 170 166 163 164 167 172 175 169 147 146 154 152 151 140 106 138 136 156 164 170 183 176 169 171 166 153 140 152 171 171 169 169 163 168 187 193 186 188 190 199 204 164 42 274 164 169 181 179 183 196 200 188 181 210 214 156 160 134 99 130 145 180 199 191 260 262 260 208 218 214 154 164 177 167 203 210 208 237 243 246 248 249 248
174 172 172 170 168 166 162 163 167 168 175 177 163 147 150 151 150 152 143 132 168 148 160 171 166 178 179 174 167 153 148 139 160 170 169 171 172 164 160 165 192 194 183 181 203 217 116 89 190 156 165 180 192 199 194 203 209 187 186 93 116 151 137 133 155 170 212 194 120 218 250 254 185 203 193 164 182 181 169 193 194 180 202 212 226 240 241 238
171 171 171 169 166 163 161 164 167 168 176 175 159 152 155 151 152 159 151 155 185 154 156 176 172 173 175 172 164 156 157 149 150 167 171 173 174 171 169 165 157 174 155 159 192 165 113 140 143 151 162 171 195 204 181 200 222 182 104 125 147 156 152 154 171 194 225 96 132 199 244 268 259 206 150 160 193 199 194 194 179 169 182 183 196 229 228 222
169 170 170 169 166 162 161 164 166 169 172 165 156 157 156 151 156 165 164 181 166 140 152 173 175 170 169 169 165 151 136 146 145 171 177 174 170 174 188 181 162 132 84 179 193 160 96 154 156 158 172 180 195 233 139 199 220 75 353 250 141 148 156 164 180 189 54 235 202 176 156 248 255 194 128 165 208 215 207 194 174 154 143 141 116 183 210 204
169 169 169 167 162 157 160 169 168 167 165 158 156 159 156 154 157 164 210 191 146 124 149 160 165 165 161 161 156 117 134 145 131 160 171 174 168 171 183 161 143 117 68 31 147 79 22 154 145 166 186 176 124 33 13 252 150 150 172 108 95 104 122 150 190 158 139 247 224 162 164 250 258 215 165 175 220 222 203 180 156 141 128 126 116 130 167 173
168 168 167 163 159 157 157 166 167 162 158 158 158 158 157 156 157 169 212 193 141 134 142 150 164 164 159 154 140 140 146 106 103 139 152 164 162 155 119 130 129 121 89 49 70 68 37 75 37 32 169 127 97 70 19 21 113 146 158 118 104 105 104 115 176 151 198 231 209 105 97 277 269 233 183 166 232 217 181 164 152 146 138 130 123 124 140 150
164 166 165 160 161 162 155 163 167 161 158 161 159 158 157 154 169 192 186 154 137 139 142 152 160 162 167 165 149 153 140 95 135 143 142 146 146 142 135 134 129 126 136 104 87 81 96 116 103 60 83 136 116 85 38 48 135 150 155 135 124 120 137 162 157 196 230 226 141 55 6 258 241 233 166 96 45 140 174 170 160 153 148 141 136 141 147 148
161 164 162 161 164 162 160 167 165 159 161 162 158 157 157 148 191 204 164 148 155 165 171 168 161 165 174 168 148 148 137 129 158 158 155 156 154 161 164 173 165 152 180 178 145 120 117 109 98 82 113 214 162 113 79 78 173 188 166 156 159 153 168 198 183 199 227 210 80 61 14 253 244 245 239 144 139 143 152 159 155 151 149 143 142 152 154 150
156 159 158 164 168 162 165 168 162 161 163 160 156 160 166 171 191 198 171 161 161 157 165 167 161 166 171 161 146 144 132 138 169 165 161 164 166 171 184 203 176 177 193 168 149 152 140 110 145 135 168 225 215 158 145 169 190 191 177 176 188 170 173 202 191 197 221 136 63 321 267 254 253 261 271 196 147 131 110 122 136 142 143 140 143 152 154 151
154 155 157 165 168 165 168 165 162 165 162 156 158 168 183 188 192 192 180 165 141 143 151 155 154 162 169 161 153 148 116 113 167 160 159 166 171 179 194 203 195 212 162 154 155 176 173 165 178 162 150 192 208 216 158 166 178 191 193 197 206 196 196 206 195 196 179 114 110 183 209 239 233 121 8 73 117 114 104 111 119 126 135 143 148 149 150 150
155 154 156 163 166 166 167 164 164 165 160 158 162 181 192 192 184 188 178 147 145 143 138 145 151 158 161 144 149 158 81 126 175 164 160 173 182 181 184 190 194 184 160 158 157 177 178 131 105 49 14 184 185 293 333 168 172 184 355 232 229 241 137 124 126 99 105 108 155 183 227 268 255 120 104 105 115 113 114 126 133 135 140 148 149 146 147 149
154 154 156 163 167 165 163 165 165 163 162 162 169 190 201 195 175 186 164 138 155 146 136 146 155 156 150 124 158 184 349 131 169 176 170 182 195 186 185 183 181 189 185 167 148 170 174 102 29 32 49 41 31 354 341 303 172 162 159 189 208 9 68 115 134 76 52 260 186 169 229 259 230 167 142 142 142 134 138 149 154 154 153 156 153 150 153 153
154 157 159 163 169 166 163 166 165 163 165 173 191 191 196 139 183 181 135 127 146 146 143 152 162 165 159 156 176 178 152 135 169 188 171 177 206 192 190 178 172 187 199 155 150 222 172 119 34 7 105 55 1 5 53 24 21 140 170 171 145 34 21 168 214 139 196 244 192 164 221 223 211 200 150 156 167 164 165 170 168 165 167 169 164 158 159 156
155 158 158 164 174 169 164 166 166 165 167 194 202 198 187 87 46 130 128 129 142 152 158 160 161 178 170 165 172 171 163 157 175 188 164 173 200 185 183 173 165 183 186 99 146 185 145 122 72 9 60 84 2 261 144 66 9 22 225 176 131 206 217 192 214 205 199 230 229 186 208 228 228 202 161 176 186 180 177 179 175 174 178 176 166 163 163 158
155 155 155 169 177 170 164 164 164 165 170 208 201 199 149 114 98 111 135 141 152 161 170 164 152 179 178 167 160 165 175 171 165 171 172 180 189 181 183 174 154 180 170 116 160 146 91 161 132 68 21 104 177 223 195 176 143 49 267 184 65 272 226 195 207 224 217 222 230 199 182 227 230 201 179 187 193 185 179 180 180 180 181 176 168 168 167 159
156 149 154 167 169 165 161 157 157 165 183 208 199 183 114 116 130 147 140 146 156 168 175 165 153 153 162 160 151 157 178 172 162 175 188 176 169 191 196 181 152 156 141 98 129 153 118 268 141 111 45 182 186 210 211 184 168 175 179 177 185 189 225 254 219 221 247 230 230 226 223 225 200 194 195 194 195 189 180 177 179 179 178 174 170 172 169 164
156 131 154 165 162 158 154 149 155 178 196 203 186 146 134 130 135 147 134 121 107 65 152 154 154 155 149 154 157 153 155 158 168 182 174 174 187 224 205 182 151 138 135 125 167 169 165 159 132 135 174 190 173 29 343 317 176 197 195 190 194 179 155 205 209 175 250 253 247 245 258 254 117 68 239 193 195 191 179 173 172 175 175 171 172 176 174 170
156 109 158 165 161 157 153 147 175 190 199 194 141 94 127 142 142 152 154 122 84 53 64 103 136 151 150 156 159 156 153 154 174 185 181 192 203 205 192 174 153 149 152 144 142 136 84 97 118 130 167 182 87 48 41 321 291 271 253 219 204 194 191 210 216 180 166 211 351 328 273 268 102 47 12 40 13 183 172 169 168 172 173 168 174 180 178 174
143 109 155 162 160 159 159 159 180 186 199 159 106 83 113 139 140 151 166 172 140 107 120 113 126 152 161 153 149 159 164 157 175 186 185 190 193 152 162 164 156 156 159 132 128 139 109 113 121 113 91 110 148 127 121 110 263 253 243 228 216 205 196 209 240 178 161 171 175 218 245 245 114 70 25 35 26 40 165 170 169 168 168 169 177 182 180 178
111 107 143 161 162 165 172 177 179 186 179 147 127 111 108 111 132 156 177 183 166 159 153 135 134 154 153 137 148 167 170 168 193 197 180 179 171 101 153 164 164 167 175 173 171 174 175 153 133 134 142 174 186 193 193 184 212 230 224 206 204 183 103 94 201 258 216 194 191 215 244 242 122 103 84 111 139 148 177 177 172 166 163 168 177 182 182 181
109 105 118 157 166 175 193 197 182 184 169 156 153 151 138 102 109 155 169 155 114 142 143 129 119 113 118 127 132 163 170 152 181 181 143 148 154 63 155 171 176 180 183 174 164 167 177 176 159 167 171 178 196 208 204 189 183 211 213 185 190 191 174 173 208 228 223 198 187 215 243 240 112 142 166 147 156 171 181 182 177 168 165 170 178 183 184 183
106 115 110 142 169 190 227 297 210 182 168 162 160 163 161 148 128 54 114 135 116 74 100 105 130 110 124 146 138 164 180 95 35 168 162 147 136 31 168 178 183 183 159 152 157 155 158 237 187 200 202 197 209 209 179 151 149 186 202 195 196 199 193 190 208 219 219 205 193 220 238 246 216 175 178 181 179 181 183 182 176 167 171 177 182 185 185 184
59 131 140 121 161 194 226 235 210 184 170 169 165 167 167 152 140 140 54 140 174 155 79 68 154 153 159 162 155 174 179 144 79 158 149 135 112 51 94 161 180 170 136 156 164 152 111 214 198 216 225 219 216 162 153 156 173 198 202 195 193 192 187 189 212 222 215 202 229 229 225 241 243 199 181 195 191 184 186 186 182 177 179 183 185 186 186 185
67 80 126 136 156 184 200 202 198 183 172 174 169 166 167 156 151 164 166 64 167 186 143 122 193 193 172 164 158 162 162 143 146 157 132 130 129 107 100 68 186 178 140 155 172 156 170 207 200 210 225 227 103 102 165 179 193 208 202 191 185 180 181 191 213 226 215 205 239 236 212 226 242 220 193 190 185 192 194 191 187 183 182 184 186 187 189 189
78 79 80 104 97 121 165 182 189 183 178 177 173 175 176 168 163 162 143 130 168 212 235 184 188 190 177 170 159 151 160 167 177 181 157 147 146 134 133 115 205 197 152 143 178 199 207 209 199 198 221 224 116 94 194 196 198 208 199 190 183 178 187 197 211 225 220 218 236 242 225 231 239 234 217 191 185 194 192 183 182 181 184 188 189 191 193 193
81 85 102 94 68 71 140 170 180 185 186 186 180 180 184 179 170 152 132 153 171 182 208 192 172 168 171 175 171 173 184 185 181 175 156 139 146 171 168 160 149 155 157 145 153 238 232 213 170 168 217 222 119 93 172 196 209 208 182 179 178 179 195 207 218 225 223 228 241 248 262 263 241 224 207 158 157 165 163 172 183 187 191 193 194 195 197 197
103 104 114 112 77 47 136 165 178 187 188 192 188 176 184 189 175 146 123 101 158 166 185 172 146 134 128 181 190 191 178 164 106 160 163 155 170 180 176 157 146 139 158 170 149 142 199 216 94 134 206 213 120 133 142 90 20 285 180 182 181 183 197 207 217 220 214 223 237 240 249 258 232 185 156 132 146 161 169 180 189 192 198 200 199 198 199 200
130 122 113 99 75 24 45 155 178 189 187 196 193 173 179 187 169 146 138 99 34 121 161 149 136 124 130 186 192 153 140 113 67 149 168 160 153 161 143 144 159 158 159 169 162 153 174 175 137 166 202 210 39 119 134 103 71 244 223 201 190 195 205 206 214 221 215 217 225 227 236 245 194 157 165 156 160 176 186 192 196 198 202 205 204 201 202 204